Terminal Aerodrome Forecast
Issued by NWS

Home | Current Version | Previous Version | Text Only | Print | Product List | Glossary On
Versions: 1 2 3 4 5 6 7 8 9 10 11 12 13 14 15
729
FTUS44 KLZK 091544 AAA
TAFPBF
TAF AMD
KPBF 091544Z 0916/1012 27012G22KT P6SM SKC
     FM091800 31018G30KT P6SM SKC
     FM100000 32007KT P6SM SKC=

USA.gov is the U.S. government's official web portal to all federal, state and local government web resources and services.